This demonstration page uses our WeatherBlox Daily Observations layout. Learn more.

Left ArrowRight Arrow

41.12389, -100.76542

Hourly Observations for January 27, 2018

Temp ( °F °C ) Dew Point ( °F °C ) Humidity (%) Winds ( mph kmh ) Pressure ( in mb ) Visibility ( mi km ) Precip ( " mm )
12:53 am 00:53 Clear 17 -8.3 14 -10 88 88 NW 6 9 30.25 1025 10 16 0.00 0.00
1:53 am 01:53 Clear 14 -10 12 -11.1 92 92 NW 7 11 30.26 1025 10 16 0.00 0.00
2:53 am 02:53 Clear 17 -8.3 12 -11.1 80 80 NW 8 13 30.26 1025 10 16 0.00 0.00
3:53 am 03:53 Clear 12 -11.1 9 -12.8 87 87 WNW 5 7 30.28 1026 10 16 0.00 0.00
4:53 am 04:53 Clear 12 -11.1 10 -12.2 92 92 WNW 5 7 30.29 1026 10 16 0.00 0.00
5:53 am 05:53 Clear 10 -12.2 7 -13.9 87 87 WNW 9 15 30.30 1026 10 16 0.00 0.00
6:53 am 06:53 Clear 13 -10.6 9 -12.8 84 84 NW 6 9 30.32 1027 10 16 0.00 0.00
7:53 am 07:53 Clear 10 -12.2 6 -14.4 84 84 NNW 6 9 30.35 1028 10 16 0.00 0.00
8:53 am 08:53 Sunny 14 -10 8 -13.3 77 77 NW 8 13 30.38 1029 10 16 0.00 0.00
9:53 am 09:53 Sunny 23 -5 17 -8.3 78 78 NW 7 11 30.38 1029 10 16 0.00 0.00
10:53 am 10:53 Sunny 31 -0.6 20 -6.7 64 64 WNW 12 19 30.39 1029 10 16 0.00 0.00
11:53 am 11:53 Sunny 35 1.7 22 -5.6 59 59 WNW 10 17 30.38 1029 10 16 0.00 0.00
12:53 pm 12:53 Sunny 38 3.3 24 -4.4 57 57 W 8 13 30.35 1028 10 16 0.00 0.00
1:53 pm 13:53 Sunny 40 4.4 24 -4.4 53 53 W 10 17 30.33 1027 10 16 0.00 0.00
2:53 pm 14:53 Sunny 41 5 22 -5.6 47 47 W 7 11 30.32 1027 10 16 0.00 0.00
3:53 pm 15:53 Sunny 41 5 23 -5 49 49 W 6 9 30.32 1027 10 16 0.00 0.00
4:53 pm 16:53 Sunny 39 3.9 23 -5 53 53 SW 9 15 30.33 1027 10 16 0.00 0.00
5:53 pm 17:53 Sunny 35 1.7 23 -5 61 61 SSW 7 11 30.35 1028 10 16 0.00 0.00
6:53 pm 18:53 Mostly Cloudy 32 0 22 -5.6 66 66 Calm 30.36 1028 10 16 0.00 0.00
7:53 pm 19:53 Partly Cloudy 29 -1.7 21 -6.1 72 72 Calm 30.37 1029 10 16 0.00 0.00
8:53 pm 20:53 Mostly Clear 31 -0.6 20 -6.7 64 64 N 3 6 30.36 1028 10 16 0.00 0.00
9:53 pm 21:53 Clear 23 -5 17 -8.3 78 78 NW 3 6 30.35 1028 10 16 0.00 0.00
10:53 pm 22:53 Clear 20 -6.7 16 -8.9 85 85 NW 5 7 30.34 1028 10 16 0.00 0.00
11:53 pm 23:53 Clear 18 -7.8 13 -10.6 81 81 WSW 3 6 30.35 1028 10 16 0.00 0.00

Powered by AerisWeather